STARLINK-33936 (64005 NORAD) Tracking and Keplerian Element Data

This shows tracking and keplerian element data for the satellite.

Feedback or suggestion? Click here.




ElementValue
Catalog64005
NameSTARLINK-33936
Epoch Orbit3481
Epoch Day353.6370703
Epoch Year2025
RAAN89.9397
Inclination42.996
Eccentricity0.000154
Argument of Perigee266.0705
Mean Anonmoly93.997
Mean Motion15.27594701
Decay Rate0.00019486
L11 64005U 25101M 25353.63707030 .00019486 00000+0 71544-3 0 9999
L22 64005 42.9960 89.9397 0001540 266.0705 93.9970 15.27594701 34812



Live tracking and technical data element details for STARLINK-33936 (NORAD 64005). STARLINK-33936 can be tracked NOW for your location showing map with azimuth and elevation plus other details from your city location.







IsCatalogInMostPopularTable: catalog: 64005, numindb: 3
Update: records affected: 1



GetName: 64005 STARLINK-33936

Hit Count: updated at: Tue, 10 Feb 2026 03:46:54 GMT